GPS BIIRM-6 (PRN 07)

Last updated on Wed Sep 17 2025 00:03:17 GMT+0000 (Coordinated Universal Time)

1 32711U 08012A 25258.92428602 -.00000037 00000+0 00000+0 0 9999 2 32711 54.4664 160.8792 0200597 244.2227 113.7344 2.00561565128255
UTC large
Height (km)
Speed (km/s)
/
Latitude / Longitude
Inclination (degrees)
Orbital Period (minutes)
Azimuth
Elevation
Range (km)
Doppler Factor

Next 0 passes for location: London (51.5072 / 0.1276)

Sorry there are no passes over London.